• Join FlightAware (Why Join?)
  • Login
  • US Flag 
10:01PM EDT


 

Airport Tracker/Info


-or-


 

Live Flight TrackerFlight Track Log ✈ UAL3756 ✈ 25-Apr-2013 ✈ KMIA - KORD

Flight Track Log - Related Links

Times and Time Zones

All times are in EDT time to prevent confusion due to time zone crossing. See the UAL3756 flight status page for this flight to view local times or setup timezone preferences in your user account.

Time Position Orientation Groundspeed Altitude Reporting Facility
EDT Latitude Longitude Course Direction KTS MPH feet Rate Location/Type
11:32AM 25.7983 -80.2653 318° Northwest 159 183 900  Level Miami Center
11:34AM 25.8442 -80.1767 60° Northeast 260 299 3,500 1,980 Climbing Miami Center
11:35AM 25.8953 -80.1317 38° Northeast 263 303 6,000 2,460 Climbing Miami Center
11:36AM 25.9911 -80.1436 354° North 278 320 8,900 2,340 Climbing Miami Center
11:37AM 26.0356 -80.2142 305° West 286 329 11,300 1,860 Climbing Miami Center
11:38AM 26.2184 -80.7684 318° Northwest  Level FlightAware Approximate
11:38AM 26.0458 -80.3069 277° West 257 296 12,700  Level Miami Center
11:39AM 26.0600 -80.4136 278° West 302 348 14,200 1,680 Climbing Miami Center
11:40AM 26.0761 -80.5228 279° West 338 389 16,100 1,740 Climbing Miami Center
11:41AM 26.1028 -80.6256 286° West 351 404 17,700 1,500 Climbing Miami Center
11:42AM 26.1953 -80.6839 330° Northwest 346 398 19,100 1,620 Climbing Miami Center
11:43AM 26.2833 -80.7469 327° Northwest 364 419 21,000 1,200 Climbing Miami Center
11:44AM 26.3697 -80.8033 330° Northwest 388 447 21,600 840 Climbing Miami Center
11:45AM 26.4764 -80.8742 329° Northwest 400 460 22,700 1,020 Climbing Miami Center
11:46AM 26.5789 -80.9425 329° Northwest 413 475 23,700 960 Climbing Miami Center
11:47AM 26.6792 -81.0089 329° Northwest 418 481 24,700 960 Climbing Miami Center
11:48AM 26.7775 -81.0797 327° Northwest 423 487 25,700 1,200 Climbing Miami Center
11:49AM 26.8797 -81.1486 329° Northwest 423 487 27,100 1,200 Climbing Miami Center
11:50AM 26.9803 -81.2153 329° Northwest 423 487 28,200 1,020 Climbing Miami Center
11:51AM 27.0825 -81.2844 329° Northwest 423 487 29,200 1,140 Climbing Miami Center
11:52AM 27.1806 -81.3511 329° Northwest 423 487 30,500 1,320 Climbing Miami Center
11:53AM 27.2828 -81.4206 329° Northwest 423 487 31,900 1,680 Climbing Miami Center
11:54AM 27.3644 -81.4753 329° Northwest 398 458 33,900 1,020 Climbing Miami Center
11:55AM 27.4564 -81.5372 329° Northwest 380 437 34,000  Climbing Miami Center
11:56AM 27.5564 -81.6069 328° Northwest 380 437 34,000  Level Miami Center
11:57AM 27.6503 -81.6717 329° Northwest 393 452 34,000  Level Miami Center
11:58AM 27.7461 -81.7392 328° Northwest 399 459 34,000  Level Miami Center
12:00PM 27.9456 -81.8706 330° Northwest 405 466 34,000  Level Jacksonville Center
12:01PM 28.0400 -81.9403 327° Northwest 412 474 34,000  Level Jacksonville Center
12:02PM 28.1364 -82.0100 327° Northwest 417 480 34,000  Level Jacksonville Center
12:03PM 28.2372 -82.0797 329° Northwest 417 480 34,000  Level Jacksonville Center
12:04PM 28.3336 -82.1472 328° Northwest 417 480 34,000  Level Jacksonville Center
12:05PM 28.4342 -82.2175 328° Northwest 417 480 34,000  Level Jacksonville Center
12:06PM 28.5303 -82.2853 328° Northwest 417 480 34,000  Level Jacksonville Center
12:07PM 28.6308 -82.3556 328° Northwest 417 480 34,000  Level Jacksonville Center
12:08PM 28.7147 -82.4167 327° Northwest 410 472 34,000  Level Jacksonville Center
12:09PM 28.8131 -82.4850 329° Northwest 410 472 34,000  Level Jacksonville Center
12:10PM 28.9111 -82.5581 327° Northwest 415 478 34,000  Level Jacksonville Center
12:11PM 29.0094 -82.6267 329° Northwest 415 478 34,000  Level Jacksonville Center
12:12PM 29.1078 -82.6978 328° Northwest 415 478 34,000  Level Jacksonville Center
12:13PM 29.2058 -82.7642 329° Northwest 415 478 34,000  Level Jacksonville Center
12:14PM 29.3019 -82.8356 327° Northwest 415 478 34,000  Level Jacksonville Center
12:15PM 29.4000 -82.9044 329° Northwest 415 478 34,000 180 Level Jacksonville Center
12:16PM 29.5086 -82.9856 327° Northwest 415 478 34,400 720 Climbing Jacksonville Center
12:17PM 29.6006 -83.0503 329° Northwest 399 459 35,500 780 Climbing Jacksonville Center
12:18PM 29.7047 -83.1006 337° Northwest 399 459 36,000 240 Climbing Jacksonville Center
12:19PM 29.8111 -83.1464 340° North 399 459 36,000  Level Jacksonville Center
12:20PM 29.9092 -83.1944 337° Northwest 399 459 36,000  Level Jacksonville Center
12:21PM 30.0114 -83.2403 339° North 394 453 36,000  Level Jacksonville Center
12:22PM 30.1136 -83.2889 338° Northwest 394 453 36,000  Level Jacksonville Center
12:23PM 30.2114 -83.3325 339° North 389 448 36,000  Level Jacksonville Center
12:24PM 30.3136 -83.3811 338° Northwest 389 448 36,000  Level Jacksonville Center
12:25PM 30.4136 -83.4297 337° Northwest 389 448 36,000  Level Jacksonville Center
12:26PM 30.5136 -83.4761 338° Northwest 389 448 36,000  Level Jacksonville Center
12:27PM 30.6158 -83.5250 338° Northwest 394 453 36,000  Level Jacksonville Center
12:28PM 30.6992 -83.5617 339° North 394 453 36,000  Level Jacksonville Center
12:29PM 30.8136 -83.6183 337° Northwest 388 447 36,000  Level Jacksonville Center
12:30PM 30.9178 -83.6675 338° Northwest 388 447 36,000  Level Jacksonville Center
12:31PM 31.0175 -83.7167 337° Northwest 393 452 36,000  Level Jacksonville Center
12:32PM 31.1197 -83.7636 339° North 393 452 36,000  Level Jacksonville Center
12:34PM 31.3647 -83.8833 337° Northwest 390 449 36,000  Level Atlanta Center
12:35PM 31.4669 -83.9342 337° Northwest 390 449 36,000  Level Atlanta Center
12:36PM 31.5756 -83.9731 343° North 395 455 36,000  Level Atlanta Center
12:37PM 31.6881 -83.9997 349° North 405 466 36,000  Level Atlanta Center
12:38PM 31.8031 -84.0242 350° North 410 472 36,000  Level Atlanta Center
12:39PM 31.9136 -84.0461 350° North 410 472 36,000  Level Atlanta Center
12:40PM 32.0264 -84.0708 349° North 410 472 36,000  Level Atlanta Center
12:41PM 32.1389 -84.0953 350° North 410 472 36,000  Level Atlanta Center
12:42PM 32.2539 -84.1222 349° North 410 472 36,000  Level Atlanta Center
12:43PM 32.3686 -84.1469 350° North 410 472 36,000  Level Atlanta Center
12:44PM 32.4792 -84.1719 349° North 410 472 36,000  Level Atlanta Center
12:45PM 32.5836 -84.1967 349° North 410 472 36,000  Level Atlanta Center
12:46PM 32.6961 -84.2214 350° North 410 472 36,000  Level Atlanta Center
12:47PM 32.8192 -84.2489 349° North 410 472 36,000  Level Atlanta Center
12:48PM 32.9342 -84.2789 348° North 410 472 36,000  Level Atlanta Center
12:49PM 33.0364 -84.3014 350° North 410 472 36,000  Level Atlanta Center
12:50PM 33.1511 -84.3267 350° North 410 472 36,000  Level Atlanta Center
12:51PM 33.2636 -84.3519 349° North 410 472 36,000  Level Atlanta Center
12:52PM 33.3764 -84.3772 349° North 415 478 36,000  Level Atlanta Center
12:53PM 33.4889 -84.4050 348° North 410 472 36,000  Level Atlanta Center
12:54PM 33.6017 -84.4303 349° North 410 472 36,000  Level Atlanta Center
12:55PM 33.7225 -84.4483 353° North 416 479 36,000  Level Atlanta Center
12:56PM 33.8372 -84.4614 355° North 416 479 36,000  Level Atlanta Center
12:57PM 33.9522 -84.4744 355° North 416 479 36,000  Level Atlanta Center
12:58PM 34.0689 -84.4903 354° North 416 479 36,000  Level Atlanta Center
12:59PM 34.1961 -84.5033 355° North 451 519 36,000  Level Atlanta Center
01:00PM 34.3108 -84.5167 355° North 435 501 36,000  Level Atlanta Center
01:01PM 34.4319 -84.5325 354° North 430 495 36,000  Level Atlanta Center
01:02PM 34.5467 -84.5456 355° North 419 482 36,000  Level Atlanta Center
01:03PM 34.6717 -84.5642 353° North 420 483 36,000  Level Atlanta Center
01:04PM 34.7886 -84.5775 355° North 413 475 36,000  Level Atlanta Center
01:05PM 34.9053 -84.5933 354° North 413 475 36,000  Level Atlanta Center
01:06PM 35.0222 -84.6069 355° North 413 475 36,000  Level Atlanta Center
01:07PM 35.1389 -84.6203 355° North 413 475 36,000  Level Atlanta Center
01:08PM 35.2558 -84.6339 355° North 419 482 36,000  Level Atlanta Center
01:09PM 35.3725 -84.6500 354° North 419 482 36,000  Level Atlanta Center
01:10PM 35.4892 -84.6636 355° North 419 482 36,000  Level Atlanta Center
01:11PM 35.6061 -84.6772 355° North 424 488 36,000  Level Atlanta Center
01:12PM 35.7250 -84.6911 355° North 424 488 36,000  Level Atlanta Center
01:13PM 35.8417 -84.7047 355° North 424 488 36,000  Level Atlanta Center
01:16PM 36.0917 -84.7378 354° North 424 488 36,000  Level Indianapolis Center
01:17PM 36.2081 -84.7522 354° North 422 486 36,000  Level Indianapolis Center
01:18PM 36.3250 -84.7678 354° North 424 488 36,000  Level Indianapolis Center
01:19PM 36.4436 -84.7708 359° North 430 495 36,000  Level Indianapolis Center
01:20PM 36.5672 -84.7361 13° North 455 524 36,000  Level Indianapolis Center
01:21PM 36.7169 -84.6919 13° North 459 528 36,000  Level Indianapolis Center
01:22PM 36.8411 -84.6556 13° North 460 529 36,000  Level Indianapolis Center
01:23PM 36.9656 -84.6189 13° North 460 529 36,000  Level Indianapolis Center
01:24PM 37.0867 -84.5828 13° North 462 532 36,000  Level Indianapolis Center
01:25PM 37.2317 -84.5392 13° North 461 531 36,000  Level Indianapolis Center
01:26PM 37.3564 -84.5033 13° North 458 527 36,000  Level Indianapolis Center
01:27PM 37.4817 -84.4656 13° North 460 529 36,000  Level Indianapolis Center
01:28PM 37.6103 -84.4347 11° North 468 539 36,000  Level Indianapolis Center
01:29PM 37.7244 -84.4631 349° North 418 481 36,000  Level Indianapolis Center
01:30PM 37.8344 -84.5103 341° North 415 478 36,000  Level Indianapolis Center
01:31PM 37.9419 -84.5578 341° North 410 472 36,000  Level Indianapolis Center
01:32PM 38.0711 -84.6100 342° North 414 476 36,000  Level Indianapolis Center
01:33PM 38.1803 -84.6561 342° North 413 475 36,000  Level Indianapolis Center
01:34PM 38.2897 -84.7042 341° North 412 474 36,000  Level Indianapolis Center
01:35PM 38.3717 -84.7928 320° Northwest 387 445 36,000  Level Indianapolis Center
01:36PM 38.4517 -84.8836 318° Northwest 383 441 36,000  Level Indianapolis Center
01:37PM 38.5317 -84.9733 319° Northwest 380 437 36,000  Level Indianapolis Center
01:38PM 38.6233 -85.0772 318° Northwest 375 432 36,000  Level Indianapolis Center
01:39PM 38.6950 -85.1539 320° Northwest 376 433 36,000  Level Indianapolis Center
01:40PM 38.7858 -85.2542 319° Northwest 367 422 36,000 -540 Level Indianapolis Center
01:41PM 38.8775 -85.3189 331° Northwest 378 435 34,900 -1,260 Descending Indianapolis Center
01:42PM 38.9881 -85.3439 350° North 398 458 33,400 -1,500 Descending Indianapolis Center
01:43PM 39.1003 -85.3675 351° North 405 466 31,900 -1,500 Descending Indianapolis Center
01:44PM 39.2158 -85.3933 350° North 416 479 30,400 -960 Descending Indianapolis Center
01:45PM 39.3311 -85.4186 350° North 419 482 30,000 -540 Descending Indianapolis Center
01:46PM 39.4453 -85.4439 350° North 413 475 29,300 -1,020 Descending Indianapolis Center
01:48PM 39.5739 -85.4717 351° North 402 463 28,000 -1,320 Descending Indianapolis Center
01:49PM 39.6844 -85.4969 350° North 402 463 26,600 -1,020 Descending Indianapolis Center
01:50PM 39.7911 -85.5211 350° North 392 451 26,000 -300 Descending Indianapolis Center
01:51PM 39.8969 -85.5439 351° North 386 444 26,000  Level Indianapolis Center
01:52PM 40.0011 -85.5681 350° North 381 438 26,000  Level Indianapolis Center
01:53PM 40.1261 -85.5961 350° North 388 447 26,000 -180 Level Indianapolis Center
01:54PM 40.2356 -85.6183 351° North 397 457 25,700 -900 Descending Chicago Center
01:55PM 40.3436 -85.6433 350° North 394 453 24,200 -840 Descending Chicago Center
01:56PM 40.4519 -85.6681 350° North 393 452 24,000 -300 Descending Chicago Center
01:57PM 40.5508 -85.7025 345° North 360 414 23,600 -960 Descending Chicago Center
01:58PM 40.6422 -85.7428 342° North 346 398 22,100 -1,500 Descending Chicago Center
01:59PM 40.7339 -85.7847 341° North 359 413 20,600 -1,020 Descending Chicago Center
02:00PM 40.8506 -85.8381 341° North 367 422 20,000 -300 Descending Chicago Center
02:01PM 40.9469 -85.8800 342° North 365 420 20,000  Level Chicago Center
02:02PM 41.0186 -85.9656 318° Northwest 354 407 20,000  Level Chicago Center
02:03PM 41.0744 -86.0708 305° West 349 402 20,000  Level Chicago Center
02:04PM 41.1300 -86.1767 305° West 349 402 20,000 -540 Level Chicago Center
02:05PM 41.1869 -86.2819 306° West 350 403 18,900 -1,080 Descending Chicago Center
02:06PM 41.2397 -86.3867 304° West 344 396 17,800 -1,440 Descending Chicago Center
02:07PM 41.3147 -86.4953 313° West 335 386 16,000 -1,620 Descending Chicago Center
02:08PM 41.3806 -86.5806 316° Northwest 331 381 14,500 -1,320 Descending Chicago Center
02:09PM 41.4442 -86.6628 316° Northwest 323 372 13,300 -1,200 Descending Chicago Center
02:10PM 41.5142 -86.7264 326° Northwest 317 365 12,100 -660 Descending Chicago Center
02:11PM 41.5981 -86.7664 340° North 324 373 12,000 -240 Descending Chicago Center
02:12PM 41.7000 -86.7994 346° North 327 376 11,700 -540 Descending Chicago Center
02:13PM 41.7764 -86.8483 334° Northwest 315 362 11,000 -360 Descending Chicago Center
02:14PM 41.8400 -86.9250 318° Northwest 309 356 11,000  Level Chicago Center
02:15PM 41.8939 -87.0097 311° West 305 351 11,000 -420 Level Chicago Center
02:16PM 41.9267 -87.1156 293° West 307 353 10,200 -720 Descending Chicago Center
02:17PM 41.9586 -87.2125 294° West 290 334 9,600 -1,200 Descending Chicago Center
02:18PM 41.9833 -87.3144 288° West 247 284 7,800 -1,500 Descending Chicago Center
02:19PM 41.9833 -87.3833 270° West 256 295 7,000 -480 Descending Chicago TRACON
02:20PM 41.9833 -87.4833 270° West 249 287 7,000 -660 Level Chicago TRACON
02:21PM 41.9833 -87.5833 270° West 258 297 5,700 -1,500 Descending Chicago TRACON
02:22PM 41.9833 -87.6667 270° West 231 266 4,100 -1,380 Descending Chicago TRACON
02:23PM 41.9833 -87.7333 270° West 179 206 3,000 -1,020 Descending Chicago TRACON
02:24PM 41.9833 -87.8000 270° West 156 180 2,100 -840 Descending Chicago TRACON
02:25PM 41.9833 -87.8500 270° West 131 151 1,400 -720 Descending Chicago TRACON
02:28PM 41.9667 -87.9000 270° West  Level FlightAware Approximate